DW1345 Weather Reports


Display with metric or nautical units.
time (UTC)temp
F
wind
direction
speed
MPH
gust
MPH
rain 1hr
in
rain 24hr
in
rain mn
in
humidity
%
barometer
mb
20220924203028 50 167 0.0 0.0 0.00 0.00 0.03 92 1012.3
20220924201545 50 167 0.0 0.0 0.00 0.00 0.03 92 1012.5
20220924200032 50 167 0.0 0.0 0.00 0.00 0.03 92 1012.6
20220924194527 50 167 0.0 0.0 0.00 0.00 0.03 92 1012.7
20220924193044 50 167 0.0 0.0 0.00 0.00 0.03 92 1012.7
20220924191540 51 167 0.0 0.0 0.00 0.00 0.03 92 1012.6
20220924190034 51 167 0.0 0.0 0.00 0.00 0.03 91 1012.7
20220924184537 51 167 0.0 0.0 0.00 0.00 0.03 91 1012.7
20220924183036 51 167 0.0 0.0 0.00 0.00 0.03 91 1012.7
20220924181524 51 167 0.0 0.0 0.00 0.00 0.03 91 1012.7
20220924180028 51 167 0.0 0.0 0.00 0.00 0.03 90 1012.8
20220924174523 51 167 0.0 0.0 0.00 0.00 0.03 89 1012.6
20220924173025 52 167 0.0 0.0 0.00 0.00 0.03 89 1012.9
20220924171522 52 167 0.0 0.0 0.00 0.00 0.03 88 1012.7
20220924170049 52 167 0.0 0.0 0.00 0.00 0.03 87 1012.7
20220924164521 53 167 0.0 0.0 0.00 0.00 0.03 86 1012.7
20220924163027 53 167 0.0 0.0 0.00 0.00 0.03 86 1012.8
20220924161526 54 167 0.0 0.0 0.00 0.00 0.03 86 1012.9
20220924160022 54 167 0.0 0.0 0.00 0.00 0.03 87 1012.7
20220924154519 54 167 0.0 0.0 0.00 0.00 0.03 86 1012.8
20220924153019 53 167 0.0 0.0 0.00 0.00 0.03 85 1012.7
20220924151519 53 167 0.0 0.0 0.00 0.00 0.03 83 1012.8
20220924150020 53 167 0.0 0.0 0.00 0.00 0.03 83 1012.8
20220924144518 54 167 0.0 0.0 0.00 0.00 0.03 81 1012.8
20220924143016 56 167 0.0 0.0 0.00 0.00 0.03 79 1012.7
20220924141515 57 167 0.0 0.0 0.00 0.00 0.03 77 1012.7
20220924140019 57 166 1.0 0.0 0.00 0.00 0.03 76 1012.6
20220924134512 57 146 1.0 0.0 0.00 0.00 0.03 79 1012.6
20220924133035 56 90 1.0 0.0 0.00 0.00 0.03 81 1012.7
20220924131518 55 94 1.0 0.0 0.00 0.00 0.03 82 1012.8
20220924130013 55 98 1.0 0.0 0.00 0.00 0.03 82 1012.8
20220924124535 55 98 0.0 0.0 0.00 0.00 0.03 81 1012.8
20220924123004 57 98 1.0 0.0 0.00 0.00 0.03 77 1012.8
20220924121502 58 96 1.0 0.0 0.00 0.00 0.03 81 1012.8
20220924120109 55 92 0.0 0.0 0.00 0.00 0.03 86 1012.7
20220924114555 54 90 0.0 0.0 0.00 0.00 0.03 86 1012.7
20220924113058 54 90 0.0 0.0 0.00 0.00 0.03 87 1012.7
20220924111635 54 90 1.0 0.0 0.00 0.00 0.03 88 1012.7
20220924110116 54 91 0.0 0.0 0.00 0.00 0.03 91 1012.8
20220924104553 53 91 0.0 0.0 0.00 0.00 0.03 91 1012.7
20220924103108 54 91 0.0 0.0 0.00 0.00 0.03 92 1012.7
20220924101544 54 91 0.0 0.0 0.00 0.00 0.03 94 1012.7
20220924100040 53 91 0.0 0.0 0.00 0.00 0.03 95 1012.8
20220924094536 52 91 0.0 0.0 0.00 0.00 0.03 96 1012.8
20220924093033 51 91 0.0 0.0 0.00 0.00 0.03 95 1012.8
20220924091532 51 91 0.0 0.0 0.00 0.00 0.03 95 1012.6
20220924090039 51 91 0.0 0.0 0.00 0.00 0.03 95 1012.6
20220924084528 50 91 0.0 0.0 0.00 0.00 0.03 95 1012.4
20220924083035 50 91 0.0 0.0 0.00 0.00 0.03 95 1012.5
20220924081527 50 91 0.0 0.0 0.00 0.00 0.03 95 1012.4
20220924080026 50 91 0.0 0.0 0.00 0.00 0.03 95 1012.4
20220924074523 50 91 0.0 0.0 0.00 0.00 0.00 95 1012.3
20220924073021 49 91 0.0 0.0 0.00 0.00 0.00 95 1012.2
20220924071520 49 91 0.0 0.0 0.00 0.00 0.00 95 1011.9
20220924070039 49 91 0.0 0.0 0.00 0.00 0.00 95 1011.8
20220924064523 49 91 0.0 0.0 0.00 0.00 0.00 95 1011.6
20220924063034 49 91 0.0 0.0 0.00 0.00 0.00 95 1011.4
20220924061516 49 91 0.0 0.0 0.00 0.00 0.00 95 1011.4
20220924060015 49 91 0.0 0.0 0.00 0.00 0.00 95 1011.4
20220924054516 49 91 0.0 0.0 0.00 0.00 0.00 95 1011.3
20220924053014 49 91 0.0 0.0 0.00 0.00 0.00 95 1011.2
20220924051512 49 91 0.0 0.0 0.00 0.00 0.00 95 1011.2
20220924050012 49 91 0.0 0.0 0.00 0.00 0.00 95 1011.1
20220924044511 49 91 0.0 0.0 0.00 0.00 0.00 95 1011.1
20220924043010 49 91 0.0 0.0 0.00 0.00 0.00 95 1011.1
20220924041525 49 91 0.0 0.0 0.00 0.00 0.00 95 1010.8
20220924040008 49 91 0.0 0.0 0.00 0.00 0.00 95 1010.9
20220924034507 49 91 0.0 0.0 0.00 0.00 0.00 95 1010.9
20220924033012 49 91 0.0 0.0 0.00 0.00 0.00 95 1010.9
20220924031506 49 91 0.0 0.0 0.00 0.00 0.00 95 1010.9
20220924030006 49 91 0.0 0.0 0.00 0.00 0.00 95 1010.8
20220924024505 49 91 0.0 0.0 0.00 0.00 0.00 95 1010.7
20220924023003 49 91 0.0 0.0 0.00 0.00 0.00 95 1010.7
20220924021508 49 91 0.0 0.0 0.00 0.00 0.00 95 1010.6
20220924020004 49 91 0.0 0.0 0.00 0.00 0.00 95 1010.5
20220924014501 49 91 0.0 0.0 0.00 0.00 0.00 95 1010.5
20220924013100 48 91 0.0 0.0 0.00 0.00 0.00 95 1010.5
20220924011600 48 91 0.0 0.0 0.00 0.00 0.00 95 1010.4
20220924010058 49 91 0.0 0.0 0.00 0.00 0.00 94 1010.3
20220924004557 49 91 1.0 0.0 0.00 0.00 0.00 95 1010.3
20220924003116 49 91 0.0 0.0 0.00 0.00 0.00 95 1010.3
20220924001555 49 91 0.0 0.0 0.00 0.00 0.00 95 1010.2
20220924000054 49 91 0.0 0.0 0.00 0.00 0.00 95 1010.2
20220923234555 49 91 0.0 0.0 0.00 0.00 0.00 94 1010.1
20220923233102 49 91 0.0 0.0 0.00 0.00 0.00 95 1010.1
20220923231608 49 91 0.0 0.0 0.00 0.00 0.00 95 1010.1
20220923230050 49 91 2.0 0.0 0.00 0.00 0.00 95 1010.1
20220923224550 49 92 2.0 0.0 0.00 0.00 0.00 95 1009.9
20220923223047 49 92 1.0 0.0 0.00 0.00 0.00 95 1009.9
20220923221545 49 92 1.0 0.0 0.00 0.00 0.00 95 1009.9
20220923220100 49 92 2.0 0.0 0.00 0.00 0.00 95 1009.8
20220923214543 49 92 1.0 0.0 0.00 0.00 0.36 95 1009.8
20220923213040 49 92 0.0 0.0 0.00 0.00 0.36 94 1009.7
20220923211542 49 93 0.0 0.0 0.00 0.00 0.36 94 1009.8
20220923210125 49 93 2.0 0.0 0.00 0.00 0.36 94 1009.7
20220923204636 50 96 0.0 0.0 0.00 0.00 0.36 94 1009.8